Skip Page Navigation
NASA JPL Caltech
NASA Logo - Jet Propulsion Laboratory + View the NASA Portal
+ Center for Near-Earth Object Studies
JPL Home Earth Solar System Stars & Galaxies Technology
JPL Solar System Dynamics
BODIES ORBITS EPHEMERIDES TOOLS PHYSICAL DATA DISCOVERY FAQ SITE MAP
JPL Small-Body Database Browser
Search: [ help ]  
52451 (1994 VU)
Classification: Main-belt Asteroid          SPK-ID: 2052451
Ephemeris | Orbit Diagram | Orbital Elements | Mission Design | Physical Parameters | Discovery Circumstances | Close-Approach Data ]

[ show orbit diagram ]
Orbital Elements at Epoch 2459200.5 (2020-Dec-17.0) TDB
Reference: JPL 23 (heliocentric ecliptic J2000)
 Element Value Uncertainty (1-sigma)   Units 
e .1153105340638387 1.9429e-07  
a 2.525492137189137 9.4608e-09 au
q 2.234276290075832 4.9282e-07 au
i 13.32145949269126 5.4957e-06 deg
node 56.69035029048463 1.5054e-05 deg
peri 352.3473059793787 4.9346e-05 deg
M 188.6640541312698 3.7048e-05 deg
tp 2459898.191518745360
(2022-Nov-14.69151875)
0.00015245 TDB
period 1465.944262161798
4.01
8.2374e-06
2.255e-08
d
yr
n .2455755033067323 1.3799e-09 deg/d
Q 2.816707984302442 1.0552e-08 au
  Orbit Determination Parameters
   # obs. used (total)      1537  
   data-arc span      9354 days (25.61 yr)  
   first obs. used      1994-11-03  
   last obs. used      2020-06-13  
   planetary ephem.      DE441  
   SB-pert. ephem.      SB441-N16  
   condition code      0  
   norm. resid. RMS      .46995  
   source      ORB  
   producer      Otto Matic  
   solution date      2021-Apr-13 10:45:30  

Additional Information
 Earth MOID = 1.24484 au 
 Jupiter MOID = 2.55421 au 
 T_jup = 3.407 
[ show covariance matrix ]

Ephemeris | Orbit Diagram | Orbital Elements | Mission Design | Physical Parameters | Discovery Circumstances | Close-Approach Data ]

Physical Parameter Table
Parameter Symbol Value Units Sigma Reference Notes
absolute magnitude H 14.73   n/a E2021B10  

52451 (1994 VU)          Discovered 1994-Nov-03 by Kobayashi, T. at Oizumi
Reference: 20030216/Numbers.arcLast Updated: 2004-04-19

[ show close-approach data ]
Alternate Designations
 1994 VU = 1998 UA32 
Ephemeris | Orbit Diagram | Orbital Elements | Mission Design | Physical Parameters | Discovery Circumstances | Close-Approach Data ]
ABOUT SSD CREDITS/AWARDS PRIVACY/COPYRIGHT GLOSSARY LINKS
FirstGov 2021-Jun-22 14:03 UT
(server date/time)  
NASA Home Page
Site Manager:   Ryan S. Park
Webmaster  Alan B. Chamberlin